Location: LDNL
(36.4545°S, 141.6685°E)
Time: 11:50:15
(UTC+10:00)

Vanguard 3 - Pass Details

Date: 29 January 2022
Orbit: 508 x 3258 km, 33.3° (Epoch: 25 May)

Event Time Altitude Azimuth Distance (km) Brightness Sun altitude
Rises 22:05:13 0° 351° (N) 3,101 9.9 -14.7°
Enters shadow 22:05:58 - 356° (N) 2,923 9.7 -14.8°
Reaches altitude 10° 22:08:35 10° 19° (NNE) 2,528 - -15.2°
Maximum altitude 22:11:30 14° 48° (NE) 2,590 - -15.7°
Drops below altitude 10° 22:15:05 10° 75° (ENE) 3,279 - -16.3°
Sets 22:20:47 0° 97° (E) 4,934 - -17.2°
